• In Denmark
  • List of Countries
  • For 7 days
  • Water Temperature
  • Satellite Maps
  • Weather Map
  • Weather Widgets
  • user-avatar
    Login

    Hourly Weather Eseevka

    Today, 26 September, Wednesday

    Time Temperature Precipitation Wind Pressure Humidity
    00:00 +11°C° 0 mm 4 mps 756 mmHg 78%
    01:00 +10°C° 0 mm 3 mps 756 mmHg 78%
    02:00 +10°C° 0 mm 3 mps 757 mmHg 78%
    03:00 +10°C° 0 mm 3 mps 757 mmHg 80%
    04:00 +10°C° 0 mm 3 mps 757 mmHg 79%
    05:00 +10°C° 0 mm 3 mps 758 mmHg 79%
    06:00 +9°C° 0 mm 3 mps 758 mmHg 79%
    07:00 +10°C° 0 mm 3 mps 759 mmHg 74%
    08:00 +11°C° 0 mm 4 mps 759 mmHg 69%
    09:00 +12°C° 0 mm 4 mps 760 mmHg 63%
    10:00 +13°C° 0 mm 4 mps 760 mmHg 58%
    11:00 +14°C° 0 mm 4 mps 760 mmHg 54%
    12:00 +15°C° 0 mm 4 mps 760 mmHg 49%
    13:00 +15°C° 0 mm 4 mps 760 mmHg 48%
    14:00 +15°C° 0 mm 4 mps 761 mmHg 47%
    15:00 +15°C° 0 mm 4 mps 761 mmHg 47%
    16:00 +14°C° 0 mm 4 mps 761 mmHg 50%
    17:00 +13°C° 0 mm 3 mps 761 mmHg 54%
    18:00 +12°C° 0 mm 3 mps 762 mmHg 58%
    19:00 +11°C° 0 mm 3 mps 762 mmHg 60%
    20:00 +10°C° 0 mm 3 mps 762 mmHg 63%
    21:00 +10°C° 0 mm 3 mps 762 mmHg 65%
    22:00 +9°C° 0 mm 3 mps 762 mmHg 67%
    23:00 +9°C° 0 mm 3 mps 763 mmHg 69%

    Tomorrow, 27 September, Thursday

    Time Temperature Precipitation Wind Pressure Humidity
    00:00 +8°C° 0 mm 3 mps 763 mmHg 71%
    01:00 +8°C° 0 mm 3 mps 763 mmHg 72%
    02:00 +8°C° 0 mm 3 mps 762 mmHg 74%
    03:00 +7°C° 0 mm 3 mps 762 mmHg 75%
    04:00 +7°C° 0 mm 3 mps 762 mmHg 75%
    05:00 +7°C° 0 mm 3 mps 762 mmHg 76%
    06:00 +7°C° 0 mm 3 mps 762 mmHg 76%
    07:00 +7°C° 0 mm 5 mps 761 mmHg 68%
    08:00 +9°C° 0 mm 6 mps 761 mmHg 60%
    09:00 +10°C° 0 mm 7 mps 761 mmHg 52%
    10:00 +11°C° 0 mm 8 mps 760 mmHg 49%
    11:00 +11°C° 0 mm 8 mps 759 mmHg 45%
    12:00 +12°C° 0 mm 9 mps 759 mmHg 42%
    13:00 +12°C° 0 mm 9 mps 758 mmHg 40%
    14:00 +12°C° 0 mm 9 mps 758 mmHg 39%
    15:00 +12°C° 0 mm 9 mps 757 mmHg 37%
    16:00 +11°C° 0 mm 9 mps 756 mmHg 38%
    17:00 +11°C° 0 mm 9 mps 756 mmHg 40%
    18:00 +10°C° 0 mm 9 mps 756 mmHg 41%
    19:00 +10°C° 0 mm 9 mps 756 mmHg 48%
    20:00 +10°C° 0 mm 9 mps 756 mmHg 55%
    21:00 +8°C° 0 mm 9 mps 756 mmHg 61%
    22:00 +9°C° 0 mm 8 mps 756 mmHg 66%
    23:00 +9°C° 0 mm 7 mps 756 mmHg 70%

    Day after tomorrow, 28 September, Friday

    Time Temperature Precipitation Wind Pressure Humidity
    00:00 +8°C° 0 mm 6 mps 756 mmHg 74%
    01:00 +8°C° 0 mm 6 mps 756 mmHg 77%
    02:00 +8°C° 0 mm 6 mps 756 mmHg 80%
    03:00 +8°C° 0 mm 6 mps 757 mmHg 83%
    04:00 +7°C° 0 mm 5 mps 757 mmHg 86%
    05:00 +7°C° 0 mm 5 mps 757 mmHg 88%
    06:00 +7°C° 0 mm 5 mps 757 mmHg 90%
    07:00 +8°C° 0 mm 5 mps 758 mmHg 84%
    08:00 +9°C° 0 mm 5 mps 758 mmHg 77%
    09:00 +12°C° 0 mm 5 mps 758 mmHg 71%
    10:00 +13°C° 0 mm 6 mps 758 mmHg 64%
    11:00 +14°C° 0 mm 6 mps 758 mmHg 57%
    12:00 +16°C° 0 mm 7 mps 758 mmHg 50%
    13:00 +16°C° 0 mm 7 mps 757 mmHg 50%
    14:00 +17°C° 0 mm 7 mps 757 mmHg 50%
    15:00 +17°C° 0 mm 7 mps 757 mmHg 49%
    16:00 +16°C° 0 mm 6 mps 756 mmHg 53%
    17:00 +15°C° 0 mm 6 mps 756 mmHg 57%
    18:00 +15°C° 0 mm 5 mps 756 mmHg 61%
    19:00 +14°C° 0 mm 5 mps 756 mmHg 62%
    20:00 +14°C° 0 mm 6 mps 756 mmHg 63%
    21:00 +14°C° 0 mm 6 mps 756 mmHg 64%
    22:00 +14°C° 0 mm 6 mps 756 mmHg 65%
    23:00 +13°C° 0 mm 6 mps 755 mmHg 65%

    29 September, Saturday

    Time Temperature Precipitation Wind Pressure Humidity
    00:00 +13°C° 0 mm 6 mps 755 mmHg 65%
    01:00 +13°C° 0 mm 6 mps 755 mmHg 66%
    02:00 +13°C° 0 mm 6 mps 755 mmHg 67%
    03:00 +12°C° 0 mm 5 mps 755 mmHg 68%
    04:00 +12°C° 0 mm 5 mps 755 mmHg 70%
    05:00 +12°C° 0 mm 4 mps 755 mmHg 72%
    06:00 +11°C° 0 mm 4 mps 756 mmHg 74%
    07:00 +12°C° 0 mm 4 mps 756 mmHg 72%
    08:00 +14°C° 0 mm 3 mps 756 mmHg 70%
    09:00 +16°C° 0 mm 3 mps 757 mmHg 68%
    10:00 +16°C° 0 mm 3 mps 757 mmHg 67%
    11:00 +17°C° 0 mm 2 mps 757 mmHg 66%
    12:00 +18°C° 0 mm 2 mps 757 mmHg 65%
    13:00 +18°C° 0 mm 2 mps 757 mmHg 65%
    14:00 +18°C° 0 mm 2 mps 757 mmHg 66%
    15:00 +18°C° 0 mm 2 mps 757 mmHg 66%
    16:00 +17°C° 0 mm 2 mps 757 mmHg 69%
    17:00 +16°C° 0 mm 2 mps 757 mmHg 72%
    18:00 +15°C° 0 mm 2 mps 757 mmHg 75%
    19:00 +14°C° 0.1 mm 3 mps 757 mmHg 75%
    20:00 +13°C° 0.1 mm 3 mps 757 mmHg 75%
    21:00 +13°C° 0.1 mm 3 mps 757 mmHg 76%
    22:00 +12°C° 0.3 mm 3 mps 757 mmHg 77%
    23:00 +12°C° 0.3 mm 4 mps 757 mmHg 78%

    30 September, Sunday

    Time Temperature Precipitation Wind Pressure Humidity
    00:00 +11°C° 0.3 mm 4 mps 757 mmHg 79%
    01:00 +10°C° 0.4 mm 5 mps 757 mmHg 79%
    02:00 +9°C° 0.4 mm 5 mps 758 mmHg 80%
    03:00 +9°C° 0.4 mm 6 mps 758 mmHg 80%
    04:00 +8°C° 0.3 mm 6 mps 758 mmHg 78%
    05:00 +8°C° 0.3 mm 7 mps 758 mmHg 77%
    06:00 +8°C° 0.3 mm 7 mps 759 mmHg 76%
    07:00 +6°C° 0.2 mm 7 mps 759 mmHg 75%
    08:00 +7°C° 0.2 mm 6 mps 760 mmHg 73%
    09:00 +7°C° 0.2 mm 6 mps 760 mmHg 72%
    10:00 +8°C° 0.2 mm 6 mps 761 mmHg 69%
    11:00 +8°C° 0.2 mm 5 mps 761 mmHg 66%
    12:00 +8°C° 0.2 mm 5 mps 761 mmHg 63%
    13:00 +9°C° 0 mm 5 mps 761 mmHg 58%
    14:00 +10°C° 0 mm 5 mps 761 mmHg 52%
    15:00 +10°C° 0 mm 5 mps 762 mmHg 46%
    16:00 +9°C° 0 mm 5 mps 762 mmHg 49%
    17:00 +8°C° 0 mm 4 mps 762 mmHg 51%
    18:00 +7°C° 0 mm 4 mps 763 mmHg 54%
    19:00 +7°C° 0 mm 4 mps 763 mmHg 55%
    20:00 +7°C° 0 mm 3 mps 763 mmHg 56%
    21:00 +7°C° 0 mm 3 mps 764 mmHg 58%
    22:00 +5°C° 0 mm 3 mps 764 mmHg 59%
    23:00 +5°C° 0 mm 3 mps 764 mmHg 59%

    1 October, Monday

    Time Temperature Precipitation Wind Pressure Humidity
    00:00 +5°C° 0 mm 2 mps 764 mmHg 60%
    01:00 +5°C° 0 mm 2 mps 765 mmHg 61%
    02:00 +5°C° 0 mm 2 mps 765 mmHg 62%
    03:00 +5°C° 0 mm 2 mps 765 mmHg 63%
    04:00 +5°C° 0 mm 1 mps 765 mmHg 64%
    05:00 +5°C° 0 mm 1 mps 765 mmHg 64%
    06:00 +5°C° 0 mm 1 mps 765 mmHg 65%
    07:00 +6°C° 0 mm 1 mps 765 mmHg 59%
    08:00 +8°C° 0 mm 1 mps 766 mmHg 53%
    09:00 +9°C° 0 mm 1 mps 766 mmHg 47%
    10:00 +10°C° 0 mm 1 mps 766 mmHg 43%
    11:00 +12°C° 0 mm 1 mps 766 mmHg 38%
    12:00 +13°C° 0 mm 1 mps 765 mmHg 34%
    13:00 +13°C° 0 mm 1 mps 765 mmHg 33%
    14:00 +14°C° 0 mm 1 mps 765 mmHg 32%
    15:00 +14°C° 0 mm 1 mps 764 mmHg 31%
    16:00 +13°C° 0 mm 1 mps 764 mmHg 34%
    17:00 +12°C° 0 mm 1 mps 764 mmHg 37%
    18:00 +11°C° 0 mm 1 mps 764 mmHg 39%
    19:00 +11°C° 0 mm 1 mps 765 mmHg 41%
    20:00 +10°C° 0 mm 1 mps 765 mmHg 42%
    21:00 +10°C° 0 mm 1 mps 765 mmHg 44%
    22:00 +9°C° 0 mm 1 mps 765 mmHg 45%
    23:00 +9°C° 0 mm 1 mps 765 mmHg 46%
    Show more